| time (UTC) | temp C | wind direction | speed KPH | gust KPH | rain 1hr cm | rain 24hr cm | rain mn cm | humidity % | barometer mb |
| 20260509192207 | 20 | 74 | 1.6 | 8.0 | 0.00 | 0.00 | 0.00 | 22 | 1008.2 |
| 20260509191707 | 20 | 60 | 1.6 | 1.6 | 0.00 | 0.00 | 0.00 | 26 | 1008.2 |
| 20260509191207 | 20 | 60 | 3.2 | 12.9 | 0.00 | 0.00 | 0.00 | 23 | 1008.3 |
| 20260509190707 | 20 | 37 | 3.2 | 6.4 | 0.00 | 0.00 | 0.00 | 23 | 1008.3 |
| 20260509190207 | 20 | 36 | 3.2 | 9.7 | 0.00 | 0.00 | 0.00 | 23 | 1008.3 |
| 20260509185707 | 19 | 34 | 3.2 | 12.9 | 0.00 | 0.00 | 0.00 | 25 | 1008.3 |
| 20260509185207 | 20 | 69 | 1.6 | 9.7 | 0.00 | 0.00 | 0.00 | 24 | 1008.4 |
| 20260509184707 | 20 | 69 | 1.6 | 9.7 | 0.00 | 0.00 | 0.00 | 24 | 1008.5 |
| 20260509184207 | 20 | 69 | 1.6 | 6.4 | 0.00 | 0.00 | 0.00 | 25 | 1008.5 |
| 20260509183707 | 20 | 65 | 1.6 | 12.9 | 0.00 | 0.00 | 0.00 | 22 | 1008.5 |
| 20260509183207 | 20 | 70 | 1.6 | 12.9 | 0.00 | 0.00 | 0.00 | 27 | 1008.5 |
| 20260509182707 | 20 | 41 | 4.8 | 8.0 | 0.00 | 0.00 | 0.00 | 24 | 1008.4 |
| 20260509182207 | 19 | 28 | 4.8 | 16.1 | 0.00 | 0.00 | 0.00 | 25 | 1008.5 |
| 20260509181707 | 19 | 57 | 3.2 | 9.7 | 0.00 | 0.00 | 0.00 | 24 | 1008.5 |
| 20260509181207 | 19 | 78 | 3.2 | 11.3 | 0.00 | 0.00 | 0.00 | 23 | 1008.5 |
| 20260509180707 | 19 | 95 | 3.2 | 8.0 | 0.00 | 0.00 | 0.00 | 25 | 1008.5 |
| 20260509180207 | 18 | 90 | 4.8 | 12.9 | 0.00 | 0.00 | 0.00 | 24 | 1008.5 |
| 20260509175707 | 18 | 74 | 3.2 | 11.3 | 0.00 | 0.00 | 0.00 | 24 | 1008.6 |
| 20260509175207 | 18 | 40 | 3.2 | 9.7 | 0.00 | 0.00 | 0.00 | 26 | 1008.5 |
| 20260509174707 | 18 | 40 | 3.2 | 9.7 | 0.00 | 0.00 | 0.00 | 26 | 1008.5 |
| 20260509174207 | 18 | 41 | 4.8 | 8.0 | 0.00 | 0.00 | 0.00 | 24 | 1008.5 |
| 20260509173707 | 18 | 61 | 4.8 | 9.7 | 0.00 | 0.00 | 0.00 | 22 | 1008.6 |
| 20260509173207 | 18 | 86 | 4.8 | 16.1 | 0.00 | 0.00 | 0.00 | 22 | 1008.6 |
| 20260509172708 | 18 | 53 | 4.8 | 12.9 | 0.00 | 0.00 | 0.00 | 23 | 1008.5 |
| 20260509172207 | 18 | 49 | 3.2 | 12.9 | 0.00 | 0.00 | 0.00 | 23 | 1008.5 |
| 20260509171707 | 18 | 61 | 3.2 | 8.0 | 0.00 | 0.00 | 0.00 | 27 | 1008.4 |
| 20260509171208 | 18 | 34 | 3.2 | 8.0 | 0.00 | 0.00 | 0.00 | 27 | 1008.5 |
| 20260509170708 | 17 | 31 | 3.2 | 8.0 | 0.00 | 0.00 | 0.00 | 25 | 1008.5 |
| 20260509170208 | 17 | 30 | 4.8 | 9.7 | 0.00 | 0.00 | 0.00 | 25 | 1008.5 |
| 20260509165708 | 18 | 60 | 4.8 | 9.7 | 0.00 | 0.00 | 0.00 | 26 | 1008.4 |
| 20260509165208 | 18 | 52 | 4.8 | 8.0 | 0.00 | 0.00 | 0.00 | 26 | 1008.3 |
| 20260509164708 | 17 | 48 | 3.2 | 17.7 | 0.00 | 0.00 | 0.00 | 26 | 1008.3 |
| 20260509164208 | 17 | 49 | 3.2 | 17.7 | 0.00 | 0.00 | 0.00 | 27 | 1008.4 |
| 20260509163759 | 17 | 35 | 4.8 | 11.3 | 0.00 | 0.00 | 0.00 | 26 | 1008.6 |
| 20260509163208 | 17 | 53 | 4.8 | 12.9 | 0.00 | 0.00 | 0.00 | 27 | 1008.5 |
| 20260509162708 | 17 | 64 | 4.8 | 16.1 | 0.00 | 0.00 | 0.00 | 26 | 1008.5 |
| 20260509162208 | 17 | 45 | 4.8 | 12.9 | 0.00 | 0.00 | 0.00 | 27 | 1008.5 |
| 20260509161708 | 17 | 77 | 4.8 | 12.9 | 0.00 | 0.00 | 0.00 | 28 | 1008.5 |
| 20260509161208 | 17 | 64 | 4.8 | 14.5 | 0.00 | 0.00 | 0.00 | 26 | 1008.4 |
| 20260509160708 | 17 | 59 | 4.8 | 11.3 | 0.00 | 0.00 | 0.00 | 27 | 1008.5 |
| 20260509160208 | 17 | 48 | 4.8 | 12.9 | 0.00 | 0.00 | 0.00 | 27 | 1008.4 |
| 20260509155708 | 17 | 62 | 4.8 | 11.3 | 0.00 | 0.00 | 0.00 | 26 | 1008.5 |
| 20260509155208 | 17 | 40 | 6.4 | 14.5 | 0.00 | 0.00 | 0.00 | 27 | 1008.5 |
| 20260509154708 | 17 | 42 | 6.4 | 17.7 | 0.00 | 0.00 | 0.00 | 26 | 1008.4 |
| 20260509154208 | 17 | 63 | 6.4 | 14.5 | 0.00 | 0.00 | 0.00 | 26 | 1008.5 |
| 20260509153708 | 17 | 53 | 6.4 | 16.1 | 0.00 | 0.00 | 0.00 | 26 | 1008.6 |
| 20260509153208 | 17 | 31 | 6.4 | 12.9 | 0.00 | 0.00 | 0.00 | 26 | 1008.5 |
| 20260509152708 | 17 | 77 | 6.4 | 16.1 | 0.00 | 0.00 | 0.00 | 26 | 1008.4 |
| 20260509152208 | 17 | 55 | 6.4 | 16.1 | 0.00 | 0.00 | 0.00 | 26 | 1008.4 |
| 20260509151708 | 17 | 46 | 6.4 | 12.9 | 0.00 | 0.00 | 0.00 | 26 | 1008.5 |
| 20260509151208 | 17 | 65 | 4.8 | 14.5 | 0.00 | 0.00 | 0.00 | 26 | 1008.4 |
| 20260509150708 | 17 | 32 | 3.2 | 12.9 | 0.00 | 0.00 | 0.00 | 27 | 1008.4 |
| 20260509150208 | 17 | 22 | 3.2 | 11.3 | 0.00 | 0.00 | 0.00 | 27 | 1008.3 |
| 20260509145708 | 17 | 44 | 3.2 | 8.0 | 0.00 | 0.00 | 0.00 | 28 | 1008.2 |
| 20260509145208 | 17 | 24 | 3.2 | 12.9 | 0.00 | 0.00 | 0.00 | 28 | 1008.2 |
| 20260509144708 | 17 | 351 | 3.2 | 8.0 | 0.00 | 0.00 | 0.00 | 29 | 1008.2 |
| 20260509144208 | 16 | 350 | 3.2 | 9.7 | 0.00 | 0.00 | 0.00 | 28 | 1008.2 |
| 20260509143708 | 16 | 349 | 3.2 | 6.4 | 0.00 | 0.00 | 0.00 | 29 | 1008.2 |
| 20260509143208 | 16 | 349 | 3.2 | 8.0 | 0.00 | 0.00 | 0.00 | 30 | 1008.2 |
| 20260509142708 | 16 | 348 | 3.2 | 9.7 | 0.00 | 0.00 | 0.00 | 30 | 1008.2 |
| 20260509142208 | 16 | 344 | 3.2 | 11.3 | 0.00 | 0.00 | 0.00 | 31 | 1008.2 |
| 20260509141708 | 16 | 334 | 1.6 | 8.0 | 0.00 | 0.00 | 0.00 | 30 | 1008.1 |
| 20260509141208 | 15 | 333 | 1.6 | 8.0 | 0.00 | 0.00 | 0.00 | 31 | 1008.1 |
| 20260509140708 | 15 | 324 | 1.6 | 6.4 | 0.00 | 0.00 | 0.00 | 32 | 1008.1 |
| 20260509140208 | 15 | 324 | 1.6 | 11.3 | 0.00 | 0.00 | 0.00 | 34 | 1008.1 |
| 20260509135708 | 15 | 323 | 1.6 | 8.0 | 0.00 | 0.00 | 0.00 | 33 | 1008.1 |
| 20260509135208 | 14 | 323 | 1.6 | 4.8 | 0.00 | 0.00 | 0.00 | 36 | 1008.0 |
| 20260509134708 | 14 | 323 | 3.2 | 6.4 | 0.00 | 0.00 | 0.00 | 36 | 1007.9 |
| 20260509134208 | 13 | 323 | 4.8 | 9.7 | 0.00 | 0.00 | 0.00 | 37 | 1007.8 |
| 20260509133708 | 13 | 323 | 4.8 | 12.9 | 0.00 | 0.00 | 0.00 | 38 | 1007.8 |
| 20260509133208 | 13 | 324 | 3.2 | 11.3 | 0.00 | 0.00 | 0.00 | 39 | 1007.8 |
| 20260509132708 | 12 | 324 | 3.2 | 9.7 | 0.00 | 0.00 | 0.00 | 40 | 1007.7 |
| 20260509132208 | 12 | 325 | 3.2 | 9.7 | 0.00 | 0.00 | 0.00 | 40 | 1007.6 |
| 20260509131708 | 12 | 325 | 3.2 | 9.7 | 0.00 | 0.00 | 0.00 | 39 | 1007.5 |
| 20260509131208 | 12 | 325 | 3.2 | 9.7 | 0.00 | 0.00 | 0.00 | 40 | 1007.5 |
| 20260509130708 | 12 | 325 | 3.2 | 9.7 | 0.00 | 0.00 | 0.00 | 41 | 1007.4 |
| 20260509130208 | 12 | 325 | 3.2 | 4.8 | 0.00 | 0.00 | 0.00 | 42 | 1007.4 |
| 20260509125708 | 12 | 325 | 3.2 | 11.3 | 0.00 | 0.00 | 0.00 | 42 | 1007.4 |
| 20260509125208 | 12 | 325 | 3.2 | 6.4 | 0.00 | 0.00 | 0.00 | 41 | 1007.3 |
| 20260509124708 | 12 | 325 | 3.2 | 6.4 | 0.00 | 0.00 | 0.00 | 40 | 1007.3 |
| 20260509124208 | 12 | 325 | 3.2 | 8.0 | 0.00 | 0.00 | 0.00 | 40 | 1007.2 |
| 20260509123708 | 12 | 324 | 4.8 | 11.3 | 0.00 | 0.00 | 0.00 | 39 | 1007.1 |
| 20260509123208 | 12 | 324 | 3.2 | 11.3 | 0.00 | 0.00 | 0.00 | 39 | 1007.1 |
| 20260509122708 | 12 | 324 | 1.6 | 9.7 | 0.00 | 0.00 | 0.00 | 39 | 1007.1 |
| 20260509122208 | 12 | 324 | 1.6 | 8.0 | 0.00 | 0.00 | 0.00 | 38 | 1007.0 |
| 20260509121708 | 12 | 324 | 1.6 | 8.0 | 0.00 | 0.00 | 0.00 | 38 | 1007.0 |
| 20260509121208 | 12 | 325 | 1.6 | 4.8 | 0.00 | 0.00 | 0.00 | 38 | 1006.9 |
| 20260509120708 | 12 | 324 | 1.6 | 6.4 | 0.00 | 0.00 | 0.00 | 38 | 1006.7 |
| 20260509120208 | 12 | 325 | 1.6 | 4.8 | 0.00 | 0.00 | 0.00 | 38 | 1006.7 |
| 20260509115708 | 12 | 324 | 1.6 | 6.4 | 0.00 | 0.00 | 0.00 | 36 | 1006.5 |
| 20260509115208 | 12 | 325 | 1.6 | 6.4 | 0.00 | 0.00 | 0.00 | 36 | 1006.6 |
| 20260509114708 | 12 | 325 | 3.2 | 9.7 | 0.00 | 0.00 | 0.00 | 37 | 1006.7 |
| 20260509114208 | 12 | 325 | 1.6 | 9.7 | 0.00 | 0.00 | 0.00 | 36 | 1006.7 |
| 20260509113708 | 12 | 325 | 1.6 | 6.4 | 0.00 | 0.00 | 0.00 | 36 | 1006.6 |
| 20260509113208 | 12 | 325 | 1.6 | 4.8 | 0.00 | 0.00 | 0.00 | 36 | 1006.5 |
| 20260509112708 | 12 | 325 | 1.6 | 6.4 | 0.00 | 0.00 | 0.00 | 36 | 1006.5 |
| 20260509112208 | 12 | 325 | 1.6 | 4.8 | 0.00 | 0.00 | 0.00 | 35 | 1006.5 |
| 20260509111708 | 13 | 325 | 3.2 | 4.8 | 0.00 | 0.00 | 0.00 | 34 | 1006.4 |
| 20260509111208 | 13 | 325 | 3.2 | 8.0 | 0.00 | 0.00 | 0.00 | 33 | 1006.3 |
| 20260509110708 | 13 | 321 | 1.6 | 11.3 | 0.00 | 0.00 | 0.00 | 35 | 1006.3 |
| 20260509110208 | 13 | 321 | 1.6 | 11.3 | 0.00 | 0.00 | 0.00 | 35 | 1006.3 |
| 20260509105708 | 13 | 321 | 1.6 | 6.4 | 0.00 | 0.00 | 0.00 | 37 | 1006.3 |
| 20260509105208 | 13 | 321 | 3.2 | 4.8 | 0.00 | 0.00 | 0.00 | 36 | 1006.4 |
| 20260509104708 | 13 | 321 | 3.2 | 8.0 | 0.00 | 0.00 | 0.00 | 36 | 1006.3 |
| 20260509104208 | 13 | 321 | 4.8 | 9.7 | 0.00 | 0.00 | 0.00 | 36 | 1006.3 |
| 20260509103708 | 13 | 321 | 3.2 | 9.7 | 0.00 | 0.00 | 0.00 | 35 | 1006.2 |
| 20260509103208 | 13 | 323 | 3.2 | 11.3 | 0.00 | 0.00 | 0.00 | 35 | 1006.2 |
| 20260509102708 | 13 | 323 | 1.6 | 6.4 | 0.00 | 0.00 | 0.00 | 35 | 1006.2 |
| 20260509102208 | 13 | 323 | 0.0 | 4.8 | 0.00 | 0.00 | 0.00 | 35 | 1006.2 |
| 20260509101708 | 13 | 323 | 0.0 | 4.8 | 0.00 | 0.00 | 0.00 | 35 | 1006.1 |
| 20260509101208 | 13 | 323 | 1.6 | 3.2 | 0.00 | 0.00 | 0.00 | 35 | 1006.1 |
| 20260509100708 | 13 | 323 | 1.6 | 4.8 | 0.00 | 0.00 | 0.00 | 34 | 1006.0 |
| 20260509100208 | 13 | 323 | 1.6 | 4.8 | 0.00 | 0.00 | 0.00 | 34 | 1006.0 |
| 20260509095708 | 13 | 323 | 3.2 | 4.8 | 0.00 | 0.00 | 0.00 | 34 | 1005.9 |
| 20260509095208 | 13 | 323 | 1.6 | 8.0 | 0.00 | 0.00 | 0.00 | 34 | 1005.9 |
| 20260509094708 | 13 | 323 | 1.6 | 8.0 | 0.00 | 0.00 | 0.00 | 34 | 1005.9 |
| 20260509094208 | 14 | 323 | 3.2 | 3.2 | 0.00 | 0.00 | 0.00 | 34 | 1005.9 |
| 20260509093708 | 14 | 323 | 3.2 | 8.0 | 0.00 | 0.00 | 0.00 | 33 | 1005.9 |
| 20260509093208 | 14 | 323 | 1.6 | 8.0 | 0.00 | 0.00 | 0.00 | 34 | 1005.8 |
| 20260509092708 | 14 | 323 | 1.6 | 4.8 | 0.00 | 0.00 | 0.00 | 33 | 1005.9 |
| 20260509092208 | 14 | 323 | 1.6 | 9.7 | 0.00 | 0.00 | 0.00 | 32 | 1005.8 |
| 20260509091708 | 14 | 323 | 1.6 | 6.4 | 0.00 | 0.00 | 0.00 | 32 | 1005.7 |
| 20260509091208 | 14 | 322 | 1.6 | 8.0 | 0.00 | 0.00 | 0.00 | 32 | 1005.5 |
| 20260509090708 | 15 | 324 | 1.6 | 8.0 | 0.00 | 0.00 | 0.00 | 32 | 1005.6 |
| 20260509090208 | 15 | 333 | 0.0 | 4.8 | 0.00 | 0.00 | 0.00 | 32 | 1005.5 |
| 20260509085708 | 15 | 333 | 1.6 | 4.8 | 0.00 | 0.00 | 0.00 | 31 | 1005.5 |
| 20260509085208 | 15 | 333 | 1.6 | 8.0 | 0.00 | 0.00 | 0.00 | 31 | 1005.4 |
| 20260509084708 | 15 | 334 | 1.6 | 4.8 | 0.00 | 0.00 | 0.00 | 32 | 1005.4 |
| 20260509084208 | 15 | 339 | 1.6 | 9.7 | 0.00 | 0.00 | 0.00 | 31 | 1005.3 |
| 20260509083708 | 15 | 344 | 0.0 | 1.6 | 0.00 | 0.00 | 0.00 | 31 | 1005.3 |
| 20260509083208 | 15 | 344 | 1.6 | 6.4 | 0.00 | 0.00 | 0.00 | 30 | 1005.1 |
| 20260509082708 | 15 | 344 | 1.6 | 9.7 | 0.00 | 0.00 | 0.00 | 31 | 1005.1 |
| 20260509082208 | 15 | 326 | 0.0 | 8.0 | 0.00 | 0.00 | 0.00 | 30 | 1005.1 |
| 20260509081708 | 16 | 327 | 0.0 | 0.0 | 0.00 | 0.00 | 0.00 | 30 | 1005.0 |
| 20260509081208 | 16 | 327 | 1.6 | 0.0 | 0.00 | 0.00 | 0.00 | 30 | 1005.0 |
| 20260509080708 | 16 | 327 | 1.6 | 6.4 | 0.00 | 0.00 | 0.00 | 29 | 1005.0 |
| 20260509080208 | 16 | 327 | 1.6 | 9.7 | 0.00 | 0.00 | 0.00 | 30 | 1005.0 |
| 20260509075708 | 16 | 327 | 0.0 | 0.0 | 0.00 | 0.00 | 0.00 | 30 | 1005.0 |
| 20260509075208 | 16 | 327 | 0.0 | 3.2 | 0.00 | 0.00 | 0.00 | 31 | 1004.9 |
| 20260509074708 | 16 | 327 | 0.0 | 6.4 | 0.00 | 0.00 | 0.00 | 31 | 1004.9 |
| 20260509074208 | 16 | 327 | 0.0 | 4.8 | 0.00 | 0.00 | 0.00 | 32 | 1004.9 |
| 20260509073708 | 16 | 327 | 1.6 | 8.0 | 0.00 | 0.00 | 0.00 | 33 | 1004.9 |
| 20260509073208 | 15 | 327 | 1.6 | 8.0 | 0.00 | 0.00 | 0.00 | 34 | 1004.8 |
| 20260509072708 | 15 | 327 | 0.0 | 4.8 | 0.00 | 0.00 | 0.00 | 35 | 1004.9 |
| 20260509072208 | 15 | 328 | 0.0 | 8.0 | 0.00 | 0.00 | 0.00 | 35 | 1004.7 |
| 20260509071708 | 15 | 328 | 0.0 | 11.3 | 0.00 | 0.00 | 0.00 | 35 | 1004.6 |
| 20260509071208 | 15 | 329 | 0.0 | 1.6 | 0.00 | 0.00 | 0.00 | 35 | 1004.7 |
| 20260509070708 | 15 | 329 | 0.0 | 0.0 | 0.00 | 0.00 | 0.00 | 34 | 1004.5 |
| 20260509070209 | 15 | 329 | 0.0 | 0.0 | 0.00 | 0.00 | 0.00 | 35 | 1004.3 |
| 20260509065708 | 16 | 329 | 0.0 | 0.0 | 0.00 | 0.00 | 0.00 | 32 | 1004.2 |
| 20260509065208 | 16 | 329 | 0.0 | 0.0 | 0.00 | 0.00 | 0.00 | 31 | 1004.0 |
| 20260509064709 | 16 | 329 | 0.0 | 0.0 | 0.00 | 0.00 | 0.00 | 31 | 1003.9 |
| 20260509064209 | 16 | 329 | 0.0 | 0.0 | 0.00 | 0.00 | 0.00 | 29 | 1003.9 |
| 20260509063708 | 16 | 329 | 0.0 | 0.0 | 0.00 | 0.00 | 0.00 | 29 | 1003.8 |
| 20260509063209 | 16 | 329 | 0.0 | 0.0 | 0.00 | 0.00 | 0.00 | 29 | 1003.8 |
| 20260509062709 | 16 | 329 | 0.0 | 0.0 | 0.00 | 0.00 | 0.00 | 30 | 1003.8 |
| 20260509062208 | 16 | 329 | 0.0 | 0.0 | 0.00 | 0.00 | 0.00 | 30 | 1003.9 |
| 20260509061709 | 16 | 329 | 0.0 | 0.0 | 0.00 | 0.00 | 0.00 | 30 | 1004.0 |
| 20260509061209 | 16 | 329 | 0.0 | 9.7 | 0.00 | 0.00 | 0.00 | 31 | 1004.1 |
| 20260509060709 | 16 | 329 | 0.0 | 0.0 | 0.00 | 0.00 | 0.00 | 30 | 1004.0 |
| 20260509060209 | 16 | 329 | 0.0 | 0.0 | 0.00 | 0.00 | 0.00 | 30 | 1004.0 |
| 20260509055709 | 16 | 329 | 0.0 | 6.4 | 0.00 | 0.00 | 0.00 | 30 | 1004.0 |
| 20260509055209 | 16 | 329 | 0.0 | 6.4 | 0.00 | 0.00 | 0.00 | 31 | 1004.1 |
| 20260509054709 | 16 | 329 | 0.0 | 6.4 | 0.00 | 0.00 | 0.00 | 30 | 1004.1 |
| 20260509054209 | 16 | 329 | 0.0 | 0.0 | 0.00 | 0.00 | 0.00 | 30 | 1004.0 |
| 20260509053709 | 16 | 329 | 0.0 | 0.0 | 0.00 | 0.00 | 0.00 | 29 | 1003.7 |
| 20260509053209 | 16 | 329 | 0.0 | 0.0 | 0.00 | 0.00 | 0.00 | 29 | 1003.7 |
| 20260509052709 | 16 | 329 | 0.0 | 0.0 | 0.00 | 0.00 | 0.00 | 30 | 1003.6 |
| 20260509052209 | 16 | 329 | 0.0 | 0.0 | 0.00 | 0.00 | 0.00 | 29 | 1003.6 |
| 20260509051709 | 16 | 329 | 0.0 | 0.0 | 0.00 | 0.00 | 0.00 | 28 | 1003.6 |
| 20260509051209 | 16 | 329 | 0.0 | 0.0 | 0.00 | 0.00 | 0.00 | 28 | 1003.6 |
| 20260509050709 | 16 | 329 | 0.0 | 0.0 | 0.00 | 0.00 | 0.00 | 28 | 1003.6 |
| 20260509050209 | 17 | 329 | 0.0 | 0.0 | 0.00 | 0.00 | 0.00 | 28 | 1003.6 |
| 20260509045709 | 17 | 329 | 0.0 | 0.0 | 0.00 | 0.00 | 0.00 | 28 | 1003.6 |
| 20260509045209 | 17 | 329 | 0.0 | 0.0 | 0.00 | 0.00 | 0.00 | 29 | 1003.6 |
| 20260509044709 | 17 | 329 | 0.0 | 0.0 | 0.00 | 0.00 | 0.00 | 28 | 1003.6 |
| 20260509044209 | 17 | 329 | 0.0 | 0.0 | 0.00 | 0.00 | 0.00 | 27 | 1003.5 |
| 20260509043709 | 17 | 329 | 0.0 | 0.0 | 0.00 | 0.00 | 0.00 | 28 | 1003.5 |
| 20260509043209 | 17 | 329 | 0.0 | 0.0 | 0.00 | 0.00 | 0.00 | 28 | 1003.4 |
| 20260509042709 | 17 | 329 | 0.0 | 0.0 | 0.00 | 0.00 | 0.00 | 28 | 1003.5 |
| 20260509042209 | 17 | 329 | 0.0 | 0.0 | 0.00 | 0.00 | 0.00 | 29 | 1003.4 |
| 20260509041709 | 17 | 329 | 0.0 | 0.0 | 0.00 | 0.00 | 0.00 | 29 | 1003.4 |
| 20260509041209 | 17 | 329 | 0.0 | 0.0 | 0.00 | 0.00 | 0.00 | 29 | 1003.3 |
| 20260509040709 | 17 | 329 | 0.0 | 0.0 | 0.00 | 0.00 | 0.00 | 29 | 1003.3 |
| 20260509040209 | 17 | 329 | 0.0 | 0.0 | 0.00 | 0.00 | 0.00 | 30 | 1003.4 |
| 20260509035709 | 17 | 329 | 0.0 | 0.0 | 0.00 | 0.00 | 0.00 | 30 | 1003.4 |
| 20260509035209 | 17 | 329 | 0.0 | 0.0 | 0.00 | 0.00 | 0.00 | 30 | 1003.4 |
| 20260509034709 | 17 | 329 | 0.0 | 0.0 | 0.00 | 0.00 | 0.00 | 30 | 1003.3 |
| 20260509034209 | 17 | 329 | 0.0 | 0.0 | 0.00 | 0.00 | 0.00 | 30 | 1003.2 |
| 20260509033709 | 17 | 329 | 0.0 | 0.0 | 0.00 | 0.00 | 0.00 | 30 | 1003.3 |
| 20260509033209 | 17 | 329 | 0.0 | 0.0 | 0.00 | 0.00 | 0.00 | 30 | 1003.2 |
| 20260509032709 | 17 | 329 | 0.0 | 0.0 | 0.00 | 0.00 | 0.00 | 30 | 1003.0 |
| 20260509032209 | 18 | 329 | 0.0 | 0.0 | 0.00 | 0.00 | 0.00 | 29 | 1003.0 |
| 20260509031709 | 18 | 329 | 0.0 | 0.0 | 0.00 | 0.00 | 0.00 | 29 | 1002.9 |
| 20260509031209 | 18 | 329 | 0.0 | 0.0 | 0.00 | 0.00 | 0.00 | 29 | 1002.9 |
| 20260509030709 | 18 | 329 | 0.0 | 0.0 | 0.00 | 0.00 | 0.00 | 29 | 1003.0 |
| 20260509030209 | 18 | 329 | 0.0 | 0.0 | 0.00 | 0.00 | 0.00 | 28 | 1003.0 |
| 20260509025709 | 18 | 329 | 0.0 | 0.0 | 0.00 | 0.00 | 0.00 | 29 | 1003.0 |
| 20260509025209 | 18 | 329 | 0.0 | 0.0 | 0.00 | 0.00 | 0.00 | 28 | 1002.9 |
| 20260509024709 | 18 | 329 | 0.0 | 0.0 | 0.00 | 0.00 | 0.00 | 27 | 1003.0 |
| 20260509024209 | 19 | 329 | 0.0 | 0.0 | 0.00 | 0.00 | 0.00 | 26 | 1002.9 |
| 20260509023709 | 20 | 329 | 0.0 | 0.0 | 0.00 | 0.00 | 0.00 | 28 | 1002.9 |
| 20260509023209 | 20 | 329 | 0.0 | 0.0 | 0.00 | 0.00 | 0.00 | 24 | 1002.9 |
| 20260509022709 | 20 | 329 | 0.0 | 0.0 | 0.00 | 0.00 | 0.00 | 25 | 1002.7 |
| 20260509022209 | 21 | 329 | 0.0 | 0.0 | 0.00 | 0.00 | 0.00 | 23 | 1002.8 |
| 20260509021709 | 21 | 329 | 0.0 | 0.0 | 0.00 | 0.00 | 0.00 | 22 | 1002.7 |
| 20260509021209 | 21 | 329 | 0.0 | 0.0 | 0.00 | 0.00 | 0.00 | 21 | 1002.7 |
| 20260509020709 | 21 | 329 | 0.0 | 0.0 | 0.00 | 0.00 | 0.00 | 21 | 1002.7 |
| 20260509020209 | 21 | 329 | 0.0 | 0.0 | 0.00 | 0.00 | 0.00 | 20 | 1002.7 |
| 20260509015709 | 22 | 329 | 0.0 | 4.8 | 0.00 | 0.00 | 0.00 | 20 | 1002.7 |
| 20260509015209 | 22 | 329 | 0.0 | 0.0 | 0.00 | 0.00 | 0.00 | 19 | 1002.7 |
| 20260509014709 | 22 | 329 | 0.0 | 0.0 | 0.00 | 0.00 | 0.00 | 20 | 1002.7 |
| 20260509014209 | 23 | 329 | 1.6 | 3.2 | 0.00 | 0.00 | 0.00 | 20 | 1002.7 |
| 20260509013709 | 23 | 329 | 1.6 | 8.0 | 0.00 | 0.00 | 0.00 | 19 | 1002.7 |
| 20260509013209 | 23 | 329 | 3.2 | 6.4 | 0.00 | 0.00 | 0.00 | 20 | 1002.7 |
| 20260509012709 | 23 | 329 | 1.6 | 8.0 | 0.00 | 0.00 | 0.00 | 19 | 1002.7 |
| 20260509012209 | 23 | 329 | 1.6 | 6.4 | 0.00 | 0.00 | 0.00 | 20 | 1002.9 |
| 20260509011709 | 23 | 329 | 3.2 | 8.0 | 0.00 | 0.00 | 0.00 | 19 | 1002.9 |
| 20260509011209 | 23 | 327 | 3.2 | 12.9 | 0.00 | 0.00 | 0.00 | 19 | 1002.9 |
| 20260509010709 | 23 | 330 | 3.2 | 8.0 | 0.00 | 0.00 | 0.00 | 19 | 1003.0 |
| 20260509010209 | 23 | 330 | 3.2 | 12.9 | 0.00 | 0.00 | 0.00 | 19 | 1003.0 |
| 20260509005709 | 23 | 11 | 1.6 | 8.0 | 0.00 | 0.00 | 0.00 | 20 | 1003.1 |
| 20260509005209 | 23 | 11 | 3.2 | 6.4 | 0.00 | 0.00 | 0.00 | 19 | 1003.1 |
| 20260509004709 | 23 | 11 | 1.6 | 9.7 | 0.00 | 0.00 | 0.00 | 19 | 1003.1 |
| 20260509004209 | 23 | 36 | 1.6 | 6.4 | 0.00 | 0.00 | 0.00 | 20 | 1003.2 |
| 20260509003709 | 23 | 36 | 3.2 | 9.7 | 0.00 | 0.00 | 0.00 | 19 | 1003.2 |
| 20260509003209 | 23 | 37 | 3.2 | 9.7 | 0.00 | 0.00 | 0.00 | 19 | 1003.2 |
| 20260509002709 | 23 | 38 | 1.6 | 6.4 | 0.00 | 0.00 | 0.00 | 20 | 1003.3 |
| 20260509002209 | 23 | 38 | 1.6 | 6.4 | 0.00 | 0.00 | 0.00 | 20 | 1003.2 |
| 20260509001709 | 23 | 37 | 1.6 | 3.2 | 0.00 | 0.00 | 0.00 | 21 | 1003.3 |
| 20260509001209 | 23 | 37 | 3.2 | 8.0 | 0.00 | 0.00 | 0.00 | 21 | 1003.3 |
| 20260509000709 | 23 | 32 | 3.2 | 11.3 | 0.00 | 0.00 | 0.00 | 21 | 1003.3 |
| 20260509000211 | 23 | 56 | 4.8 | 14.5 | 0.00 | 0.00 | 0.00 | 21 | 1003.4 |
| 20260508235709 | 23 | 45 | 4.8 | 11.3 | 0.00 | 0.00 | 0.00 | 20 | 1003.3 |
| 20260508235209 | 23 | 36 | 3.2 | 8.0 | 0.00 | 0.00 | 0.00 | 21 | 1003.3 |
| 20260508234709 | 23 | 34 | 1.6 | 9.7 | 0.00 | 0.00 | 0.00 | 21 | 1003.4 |
| 20260508234209 | 23 | 34 | 3.2 | 9.7 | 0.00 | 0.00 | 0.00 | 21 | 1003.4 |
| 20260508233709 | 23 | 34 | 4.8 | 8.0 | 0.00 | 0.00 | 0.00 | 21 | 1003.4 |
| 20260508233209 | 23 | 89 | 4.8 | 14.5 | 0.00 | 0.00 | 0.00 | 21 | 1003.3 |
| 20260508232709 | 23 | 19 | 4.8 | 11.3 | 0.00 | 0.00 | 0.00 | 21 | 1003.3 |
| 20260508232209 | 23 | 48 | 4.8 | 12.9 | 0.00 | 0.00 | 0.00 | 21 | 1003.4 |
| 20260508231709 | 23 | 44 | 4.8 | 9.7 | 0.00 | 0.00 | 0.00 | 20 | 1003.4 |
| 20260508231209 | 23 | 166 | 4.8 | 11.3 | 0.00 | 0.00 | 0.00 | 22 | 1003.4 |
| 20260508230709 | 23 | 74 | 4.8 | 14.5 | 0.00 | 0.00 | 0.00 | 21 | 1003.4 |
| 20260508230209 | 23 | 0 | 4.8 | 12.9 | 0.00 | 0.00 | 0.00 | 21 | 1003.5 |
| 20260508225711 | 23 | 57 | 4.8 | 12.9 | 0.00 | 0.00 | 0.00 | 21 | 1003.6 |
| 20260508225209 | 23 | 46 | 4.8 | 9.7 | 0.00 | 0.00 | 0.00 | 21 | 1003.7 |
| 20260508224709 | 23 | 23 | 4.8 | 14.5 | 0.00 | 0.00 | 0.00 | 21 | 1003.7 |
| 20260508224209 | 23 | 54 | 4.8 | 12.9 | 0.00 | 0.00 | 0.00 | 21 | 1003.7 |
| 20260508223709 | 23 | 80 | 6.4 | 11.3 | 0.00 | 0.00 | 0.00 | 21 | 1003.9 |
| 20260508223209 | 23 | 44 | 6.4 | 16.1 | 0.00 | 0.00 | 0.00 | 21 | 1003.9 |
| 20260508222709 | 23 | 28 | 4.8 | 12.9 | 0.00 | 0.00 | 0.00 | 21 | 1003.9 |
| 20260508222209 | 23 | 68 | 4.8 | 14.5 | 0.00 | 0.00 | 0.00 | 21 | 1003.9 |
| 20260508221709 | 23 | 61 | 4.8 | 14.5 | 0.00 | 0.00 | 0.00 | 22 | 1004.0 |
| 20260508221209 | 23 | 59 | 4.8 | 12.9 | 0.00 | 0.00 | 0.00 | 22 | 1004.1 |
| 20260508220709 | 23 | 50 | 4.8 | 16.1 | 0.00 | 0.00 | 0.00 | 22 | 1004.2 |
| 20260508220209 | 23 | 231 | 3.2 | 9.7 | 0.00 | 0.00 | 0.00 | 22 | 1004.2 |
| 20260508215709 | 23 | 204 | 4.8 | 11.3 | 0.00 | 0.00 | 0.00 | 24 | 1004.2 |
| 20260508215209 | 23 | 43 | 4.8 | 16.1 | 0.00 | 0.00 | 0.00 | 22 | 1004.5 |
| 20260508214709 | 23 | 48 | 4.8 | 12.9 | 0.00 | 0.00 | 0.00 | 22 | 1004.5 |
| 20260508214209 | 23 | 39 | 4.8 | 12.9 | 0.00 | 0.00 | 0.00 | 23 | 1004.4 |
| 20260508213709 | 23 | 61 | 4.8 | 12.9 | 0.00 | 0.00 | 0.00 | 22 | 1004.6 |
| 20260508213209 | 22 | 52 | 4.8 | 8.0 | 0.00 | 0.00 | 0.00 | 22 | 1004.7 |
| 20260508212709 | 22 | 22 | 6.4 | 16.1 | 0.00 | 0.00 | 0.00 | 23 | 1004.7 |
| 20260508212209 | 22 | 56 | 4.8 | 14.5 | 0.00 | 0.00 | 0.00 | 23 | 1004.8 |
| 20260508211709 | 22 | 107 | 4.8 | 12.9 | 0.00 | 0.00 | 0.00 | 22 | 1004.7 |
| 20260508211209 | 22 | 169 | 4.8 | 14.5 | 0.00 | 0.00 | 0.00 | 23 | 1004.8 |
| 20260508210709 | 22 | 52 | 6.4 | 14.5 | 0.00 | 0.00 | 0.00 | 23 | 1004.9 |
| 20260508210209 | 22 | 24 | 8.0 | 17.7 | 0.00 | 0.00 | 0.00 | 23 | 1004.9 |
| 20260508205709 | 22 | 60 | 6.4 | 17.7 | 0.00 | 0.00 | 0.00 | 22 | 1005.0 |
| 20260508205209 | 22 | 19 | 4.8 | 16.1 | 0.00 | 0.00 | 0.00 | 24 | 1005.1 |
| 20260508204709 | 22 | 186 | 6.4 | 16.1 | 0.00 | 0.00 | 0.00 | 24 | 1005.1 |
| 20260508204209 | 22 | 100 | 6.4 | 17.7 | 0.00 | 0.00 | 0.00 | 24 | 1005.1 |
| 20260508203709 | 22 | 78 | 6.4 | 14.5 | 0.00 | 0.00 | 0.00 | 23 | 1005.2 |
| 20260508203209 | 22 | 63 | 6.4 | 19.3 | 0.00 | 0.00 | 0.00 | 23 | 1005.2 |
| 20260508202709 | 23 | 59 | 6.4 | 14.5 | 0.00 | 0.00 | 0.00 | 22 | 1005.2 |
| 20260508202210 | 23 | 11 | 4.8 | 12.9 | 0.00 | 0.00 | 0.00 | 22 | 1005.3 |
| 20260508201709 | 23 | 34 | 4.8 | 8.0 | 0.00 | 0.00 | 0.00 | 23 | 1005.3 |
| 20260508201210 | 23 | 66 | 4.8 | 11.3 | 0.00 | 0.00 | 0.00 | 23 | 1005.4 |
| 20260508200709 | 23 | 118 | 4.8 | 9.7 | 0.00 | 0.00 | 0.00 | 24 | 1005.5 |
| 20260508200210 | 23 | 121 | 3.2 | 14.5 | 0.00 | 0.00 | 0.00 | 23 | 1005.5 |
| 20260508195710 | 23 | 42 | 3.2 | 11.3 | 0.00 | 0.00 | 0.00 | 23 | 1005.5 |
| 20260508195210 | 23 | 318 | 3.2 | 8.0 | 0.00 | 0.00 | 0.00 | 23 | 1005.5 |
| 20260508194710 | 23 | 315 | 3.2 | 8.0 | 0.00 | 0.00 | 0.00 | 21 | 1005.5 |
| 20260508194210 | 23 | 315 | 3.2 | 11.3 | 0.00 | 0.00 | 0.00 | 25 | 1005.6 |
| 20260508193710 | 23 | 315 | 1.6 | 9.7 | 0.00 | 0.00 | 0.00 | 23 | 1005.5 |
| 20260508193210 | 23 | 314 | 3.2 | 11.3 | 0.00 | 0.00 | 0.00 | 23 | 1005.6 |
| 20260508192710 | 23 | 313 | 3.2 | 9.7 | 0.00 | 0.00 | 0.00 | 25 | 1005.7 |